<?xml version="1.0" encoding="UTF-8" standalone="no" ?>
<gpx xmlns="http://www.topografix.com/GPX/1/1" xmlns:xsi="http://www.w3.org/2001/XMLSchema-instance" xsi:schemaLocation="http://www.topografix.com/GPX/1/1 http://www.topografix.com/GPX/1/1/gpx.xsd" version="1.1" creator="VisuGPX - https://www.visugpx.com">
  <metadata>
    <name>¨Pte Rosselle, Geislautern, Galibot</name>
    <desc><![CDATA[réalisable par tous temps, circuit à adapter au niveau du terril en Allemagne (mi parcours) pour cause de travaux dans ce secteur. On peut suivre le flèchage allemand \"S1\" quand il existe!!!]]></desc>
  </metadata>
  <trk>
    <name><![CDATA[Pte Rosselle Geislautern Galibot]]></name>
    <trkseg>
      <trkpt lat="49.20802" lon="6.84459">
        <ele>204.6</ele>
        <time>2013-04-09T20:07:17Z</time>
      </trkpt>
      <trkpt lat="49.2088" lon="6.84404">
        <ele>213.4</ele>
        <time>2013-04-09T20:07:17Z</time>
      </trkpt>
      <trkpt lat="49.20909" lon="6.84287">
        <ele>208.8</ele>
        <time>2013-04-09T20:07:17Z</time>
      </trkpt>
      <trkpt lat="49.21" lon="6.84142">
        <ele>216.7</ele>
        <time>2013-04-09T20:07:17Z</time>
      </trkpt>
      <trkpt lat="49.21045" lon="6.83969">
        <ele>209.9</ele>
        <time>2013-04-09T20:07:17Z</time>
      </trkpt>
      <trkpt lat="49.21178" lon="6.83663">
        <ele>210.4</ele>
        <time>2013-04-09T20:07:17Z</time>
      </trkpt>
      <trkpt lat="49.21115" lon="6.8353">
        <ele>201.5</ele>
        <time>2013-04-09T20:07:17Z</time>
      </trkpt>
      <trkpt lat="49.21203" lon="6.83282">
        <ele>201.6</ele>
        <time>2013-04-09T20:07:17Z</time>
      </trkpt>
      <trkpt lat="49.21495" lon="6.82969">
        <ele>196.3</ele>
        <time>2013-04-09T20:07:17Z</time>
      </trkpt>
      <trkpt lat="49.21615" lon="6.82877">
        <ele>192.5</ele>
        <time>2013-04-09T20:07:17Z</time>
      </trkpt>
      <trkpt lat="49.21676" lon="6.83125">
        <ele>223.7</ele>
        <time>2013-04-09T20:07:17Z</time>
      </trkpt>
      <trkpt lat="49.21756" lon="6.82996">
        <ele>227</ele>
        <time>2013-04-09T20:07:17Z</time>
      </trkpt>
      <trkpt lat="49.21984" lon="6.82752">
        <ele>213.8</ele>
        <time>2013-04-09T20:07:17Z</time>
      </trkpt>
      <trkpt lat="49.21996" lon="6.82725">
        <ele>209.9</ele>
        <time>2013-04-09T20:07:17Z</time>
      </trkpt>
      <trkpt lat="49.22138" lon="6.82758">
        <ele>214.2</ele>
        <time>2013-04-09T20:07:17Z</time>
      </trkpt>
      <trkpt lat="49.22408" lon="6.82909">
        <ele>220.8</ele>
        <time>2013-04-09T20:07:17Z</time>
      </trkpt>
      <trkpt lat="49.22506" lon="6.83103">
        <ele>221.3</ele>
        <time>2013-04-09T20:07:17Z</time>
      </trkpt>
      <trkpt lat="49.22532" lon="6.83262">
        <ele>221.6</ele>
        <time>2013-04-09T20:07:17Z</time>
      </trkpt>
      <trkpt lat="49.22722" lon="6.83237">
        <ele>212.4</ele>
        <time>2013-04-09T20:07:17Z</time>
      </trkpt>
      <trkpt lat="49.22816" lon="6.83328">
        <ele>237.2</ele>
        <time>2013-04-09T20:07:17Z</time>
      </trkpt>
      <trkpt lat="49.22963" lon="6.83073">
        <ele>195.7</ele>
        <time>2013-04-09T20:07:17Z</time>
      </trkpt>
      <trkpt lat="49.23051" lon="6.83114">
        <ele>192.9</ele>
        <time>2013-04-09T20:07:17Z</time>
      </trkpt>
      <trkpt lat="49.23108" lon="6.8318">
        <ele>193.1</ele>
        <time>2013-04-09T20:07:17Z</time>
      </trkpt>
      <trkpt lat="49.23021" lon="6.83272">
        <ele>204.1</ele>
        <time>2013-04-09T20:07:17Z</time>
      </trkpt>
      <trkpt lat="49.22911" lon="6.83402">
        <ele>226.3</ele>
        <time>2013-04-09T20:07:17Z</time>
      </trkpt>
      <trkpt lat="49.22871" lon="6.83527">
        <ele>236.7</ele>
        <time>2013-04-09T20:07:17Z</time>
      </trkpt>
      <trkpt lat="49.22907" lon="6.83645">
        <ele>227.3</ele>
        <time>2013-04-09T20:07:17Z</time>
      </trkpt>
      <trkpt lat="49.2291" lon="6.83765">
        <ele>228.9</ele>
        <time>2013-04-09T20:07:17Z</time>
      </trkpt>
      <trkpt lat="49.22903" lon="6.83897">
        <ele>233.5</ele>
        <time>2013-04-09T20:07:17Z</time>
      </trkpt>
      <trkpt lat="49.22977" lon="6.84089">
        <ele>241.2</ele>
        <time>2013-04-09T20:07:17Z</time>
      </trkpt>
      <trkpt lat="49.22927" lon="6.8441">
        <ele>267.9</ele>
        <time>2013-04-09T20:07:17Z</time>
      </trkpt>
      <trkpt lat="49.22867" lon="6.84566">
        <ele>276.1</ele>
        <time>2013-04-09T20:07:17Z</time>
      </trkpt>
      <trkpt lat="49.22868" lon="6.84615">
        <ele>279.9</ele>
        <time>2013-04-09T20:07:17Z</time>
      </trkpt>
      <trkpt lat="49.22814" lon="6.84689">
        <ele>282.4</ele>
        <time>2013-04-09T20:07:17Z</time>
      </trkpt>
      <trkpt lat="49.22781" lon="6.84768">
        <ele>282.8</ele>
        <time>2013-04-09T20:07:17Z</time>
      </trkpt>
      <trkpt lat="49.22742" lon="6.8486">
        <ele>286.8</ele>
        <time>2013-04-09T20:07:17Z</time>
      </trkpt>
      <trkpt lat="49.22647" lon="6.84942">
        <ele>283.9</ele>
        <time>2013-04-09T20:07:17Z</time>
      </trkpt>
      <trkpt lat="49.22581" lon="6.84998">
        <ele>283.8</ele>
        <time>2013-04-09T20:07:17Z</time>
      </trkpt>
      <trkpt lat="49.22533" lon="6.85109">
        <ele>289.6</ele>
        <time>2013-04-09T20:07:17Z</time>
      </trkpt>
      <trkpt lat="49.22487" lon="6.8518">
        <ele>294.7</ele>
        <time>2013-04-09T20:07:17Z</time>
      </trkpt>
      <trkpt lat="49.22398" lon="6.85333">
        <ele>299.3</ele>
        <time>2013-04-09T20:07:17Z</time>
      </trkpt>
      <trkpt lat="49.2233" lon="6.85273">
        <ele>298.9</ele>
        <time>2013-04-09T20:07:17Z</time>
      </trkpt>
      <trkpt lat="49.2225" lon="6.85105">
        <ele>294.2</ele>
        <time>2013-04-09T20:07:17Z</time>
      </trkpt>
      <trkpt lat="49.2218" lon="6.84955">
        <ele>288.5</ele>
        <time>2013-04-09T20:07:17Z</time>
      </trkpt>
      <trkpt lat="49.22228" lon="6.84881">
        <ele>291.7</ele>
        <time>2013-04-09T20:07:17Z</time>
      </trkpt>
      <trkpt lat="49.22222" lon="6.84831">
        <ele>290.1</ele>
        <time>2013-04-09T20:07:17Z</time>
      </trkpt>
      <trkpt lat="49.22172" lon="6.84872">
        <ele>283.9</ele>
        <time>2013-04-09T20:07:17Z</time>
      </trkpt>
      <trkpt lat="49.2211" lon="6.84953">
        <ele>279.8</ele>
        <time>2013-04-09T20:07:17Z</time>
      </trkpt>
      <trkpt lat="49.22042" lon="6.84959">
        <ele>269.3</ele>
        <time>2013-04-09T20:07:17Z</time>
      </trkpt>
      <trkpt lat="49.21987" lon="6.85045">
        <ele>266.2</ele>
        <time>2013-04-09T20:07:17Z</time>
      </trkpt>
      <trkpt lat="49.21941" lon="6.85115">
        <ele>256.9</ele>
        <time>2013-04-09T20:07:17Z</time>
      </trkpt>
      <trkpt lat="49.21983" lon="6.85168">
        <ele>258.6</ele>
        <time>2013-04-09T20:07:17Z</time>
      </trkpt>
      <trkpt lat="49.2207" lon="6.85292">
        <ele>264.3</ele>
        <time>2013-04-09T20:07:17Z</time>
      </trkpt>
      <trkpt lat="49.22118" lon="6.85452">
        <ele>266.5</ele>
        <time>2013-04-09T20:07:17Z</time>
      </trkpt>
      <trkpt lat="49.22175" lon="6.85573">
        <ele>267.4</ele>
        <time>2013-04-09T20:07:17Z</time>
      </trkpt>
      <trkpt lat="49.22213" lon="6.85729">
        <ele>266.2</ele>
        <time>2013-04-09T20:07:17Z</time>
      </trkpt>
      <trkpt lat="49.22257" lon="6.85848">
        <ele>262.8</ele>
        <time>2013-04-09T20:07:17Z</time>
      </trkpt>
      <trkpt lat="49.2227" lon="6.85936">
        <ele>269.6</ele>
        <time>2013-04-09T20:07:17Z</time>
      </trkpt>
      <trkpt lat="49.22225" lon="6.86047">
        <ele>271.7</ele>
        <time>2013-04-09T20:07:17Z</time>
      </trkpt>
      <trkpt lat="49.22225" lon="6.86122">
        <ele>272.5</ele>
        <time>2013-04-09T20:07:17Z</time>
      </trkpt>
      <trkpt lat="49.22233" lon="6.86205">
        <ele>274.8</ele>
        <time>2013-04-09T20:07:17Z</time>
      </trkpt>
      <trkpt lat="49.22212" lon="6.86322">
        <ele>281.5</ele>
        <time>2013-04-09T20:07:17Z</time>
      </trkpt>
      <trkpt lat="49.22091" lon="6.86456">
        <ele>282.5</ele>
        <time>2013-04-09T20:07:17Z</time>
      </trkpt>
      <trkpt lat="49.22001" lon="6.86609">
        <ele>298.4</ele>
        <time>2013-04-09T20:07:17Z</time>
      </trkpt>
      <trkpt lat="49.21942" lon="6.86752">
        <ele>303.4</ele>
        <time>2013-04-09T20:07:17Z</time>
      </trkpt>
      <trkpt lat="49.21883" lon="6.86949">
        <ele>311</ele>
        <time>2013-04-09T20:07:17Z</time>
      </trkpt>
      <trkpt lat="49.2186" lon="6.87054">
        <ele>312.6</ele>
        <time>2013-04-09T20:07:17Z</time>
      </trkpt>
      <trkpt lat="49.21692" lon="6.87085">
        <ele>314.3</ele>
        <time>2013-04-09T20:07:17Z</time>
      </trkpt>
      <trkpt lat="49.21643" lon="6.87089">
        <ele>312.9</ele>
        <time>2013-04-09T20:07:17Z</time>
      </trkpt>
      <trkpt lat="49.21529" lon="6.87161">
        <ele>308</ele>
        <time>2013-04-09T20:07:17Z</time>
      </trkpt>
      <trkpt lat="49.21469" lon="6.87267">
        <ele>307.3</ele>
        <time>2013-04-09T20:07:17Z</time>
      </trkpt>
      <trkpt lat="49.21394" lon="6.87533">
        <ele>308.2</ele>
        <time>2013-04-09T20:07:17Z</time>
      </trkpt>
      <trkpt lat="49.21292" lon="6.87585">
        <ele>306.5</ele>
        <time>2013-04-09T20:07:17Z</time>
      </trkpt>
      <trkpt lat="49.21349" lon="6.8736">
        <ele>304.6</ele>
        <time>2013-04-09T20:07:17Z</time>
      </trkpt>
      <trkpt lat="49.21302" lon="6.87322">
        <ele>301.1</ele>
        <time>2013-04-09T20:07:17Z</time>
      </trkpt>
      <trkpt lat="49.21274" lon="6.87196">
        <ele>297.3</ele>
        <time>2013-04-09T20:07:17Z</time>
      </trkpt>
      <trkpt lat="49.21362" lon="6.8701">
        <ele>298</ele>
        <time>2013-04-09T20:07:17Z</time>
      </trkpt>
      <trkpt lat="49.21387" lon="6.86918">
        <ele>303.2</ele>
        <time>2013-04-09T20:07:17Z</time>
      </trkpt>
      <trkpt lat="49.21345" lon="6.86902">
        <ele>299.3</ele>
        <time>2013-04-09T20:07:17Z</time>
      </trkpt>
      <trkpt lat="49.21252" lon="6.867">
        <ele>296.9</ele>
        <time>2013-04-09T20:07:17Z</time>
      </trkpt>
      <trkpt lat="49.2117" lon="6.86668">
        <ele>291.2</ele>
        <time>2013-04-09T20:07:17Z</time>
      </trkpt>
      <trkpt lat="49.21139" lon="6.86636">
        <ele>288.2</ele>
        <time>2013-04-09T20:07:17Z</time>
      </trkpt>
      <trkpt lat="49.21054" lon="6.86657">
        <ele>279.9</ele>
        <time>2013-04-09T20:07:17Z</time>
      </trkpt>
      <trkpt lat="49.20988" lon="6.86705">
        <ele>272.2</ele>
        <time>2013-04-09T20:07:17Z</time>
      </trkpt>
      <trkpt lat="49.20976" lon="6.86799">
        <ele>266.8</ele>
        <time>2013-04-09T20:07:17Z</time>
      </trkpt>
      <trkpt lat="49.20859" lon="6.86611">
        <ele>261</ele>
        <time>2013-04-09T20:07:17Z</time>
      </trkpt>
      <trkpt lat="49.20788" lon="6.86552">
        <ele>254</ele>
        <time>2013-04-09T20:07:17Z</time>
      </trkpt>
      <trkpt lat="49.20752" lon="6.86437">
        <ele>247.8</ele>
        <time>2013-04-09T20:07:17Z</time>
      </trkpt>
      <trkpt lat="49.20567" lon="6.86124">
        <ele>238.6</ele>
        <time>2013-04-09T20:07:17Z</time>
      </trkpt>
      <trkpt lat="49.2049" lon="6.85866">
        <ele>251.1</ele>
        <time>2013-04-09T20:07:17Z</time>
      </trkpt>
      <trkpt lat="49.20441" lon="6.85804">
        <ele>243.6</ele>
        <time>2013-04-09T20:07:17Z</time>
      </trkpt>
      <trkpt lat="49.20385" lon="6.85783">
        <ele>234.7</ele>
        <time>2013-04-09T20:07:17Z</time>
      </trkpt>
      <trkpt lat="49.20328" lon="6.85712">
        <ele>229</ele>
        <time>2013-04-09T20:07:17Z</time>
      </trkpt>
      <trkpt lat="49.20325" lon="6.85654">
        <ele>229.8</ele>
        <time>2013-04-09T20:07:17Z</time>
      </trkpt>
      <trkpt lat="49.20314" lon="6.85521">
        <ele>239.3</ele>
        <time>2013-04-09T20:07:17Z</time>
      </trkpt>
      <trkpt lat="49.20336" lon="6.85436">
        <ele>247.1</ele>
        <time>2013-04-09T20:07:17Z</time>
      </trkpt>
      <trkpt lat="49.20409" lon="6.85278">
        <ele>251.8</ele>
        <time>2013-04-09T20:07:17Z</time>
      </trkpt>
      <trkpt lat="49.20605" lon="6.85097">
        <ele>235.7</ele>
        <time>2013-04-09T20:07:17Z</time>
      </trkpt>
      <trkpt lat="49.20607" lon="6.85064">
        <ele>231</ele>
        <time>2013-04-09T20:07:17Z</time>
      </trkpt>
      <trkpt lat="49.20736" lon="6.85001">
        <ele>226.6</ele>
        <time>2013-04-09T20:07:17Z</time>
      </trkpt>
      <trkpt lat="49.20807" lon="6.8497">
        <ele>229.2</ele>
        <time>2013-04-09T20:07:17Z</time>
      </trkpt>
      <trkpt lat="49.20866" lon="6.84988">
        <ele>227.8</ele>
        <time>2013-04-09T20:07:17Z</time>
      </trkpt>
      <trkpt lat="49.20863" lon="6.84922">
        <ele>228.1</ele>
        <time>2013-04-09T20:07:17Z</time>
      </trkpt>
      <trkpt lat="49.20805" lon="6.84875">
        <ele>230.7</ele>
        <time>2013-04-09T20:07:17Z</time>
      </trkpt>
      <trkpt lat="49.20827" lon="6.84807">
        <ele>226.4</ele>
        <time>2013-04-09T20:07:17Z</time>
      </trkpt>
      <trkpt lat="49.20839" lon="6.84759">
        <ele>218.6</ele>
        <time>2013-04-09T20:07:17Z</time>
      </trkpt>
      <trkpt lat="49.20872" lon="6.84758">
        <ele>215.1</ele>
        <time>2013-04-09T20:07:17Z</time>
      </trkpt>
      <trkpt lat="49.20977" lon="6.84845">
        <ele>216.1</ele>
        <time>2013-04-09T20:07:17Z</time>
      </trkpt>
      <trkpt lat="49.21024" lon="6.84952">
        <ele>221.4</ele>
        <time>2013-04-09T20:07:17Z</time>
      </trkpt>
      <trkpt lat="49.21091" lon="6.85024">
        <ele>225.7</ele>
        <time>2013-04-09T20:07:17Z</time>
      </trkpt>
      <trkpt lat="49.21053" lon="6.84831">
        <ele>223.8</ele>
        <time>2013-04-09T20:07:17Z</time>
      </trkpt>
      <trkpt lat="49.21039" lon="6.84768">
        <ele>220.8</ele>
        <time>2013-04-09T20:07:17Z</time>
      </trkpt>
      <trkpt lat="49.20971" lon="6.84626">
        <ele>214.4</ele>
        <time>2013-04-09T20:07:17Z</time>
      </trkpt>
      <trkpt lat="49.20922" lon="6.84581">
        <ele>211.8</ele>
        <time>2013-04-09T20:07:17Z</time>
      </trkpt>
      <trkpt lat="49.20864" lon="6.84551">
        <ele>208.9</ele>
        <time>2013-04-09T20:07:17Z</time>
      </trkpt>
      <trkpt lat="49.20806" lon="6.845">
        <ele>205.1</ele>
        <time>2013-04-09T20:07:17Z</time>
      </trkpt>
      <trkpt lat="49.20806" lon="6.845">
        <ele>205.1</ele>
        <time>2013-04-09T20:07:17Z</time>
      </trkpt>
    </trkseg>
  </trk>
</gpx>